COSMOS 1275 DEB, 42175

Orbit data source: Space-Track

COSMOS 1275 DEB, 42175 is space debris in LEO originally from a launch on Thu, 04 Jun 1981 UTC launched from the Plesetsk Missile And Space Complex (PKMTR). Debris objects in space refer to the collection of defunct objects orbiting the Earth. Examples of debris include non-operational satellites, rocket bodies, and fragments generated from explosions, collisions, or faulty payload assembly.

Loading next visibility...
Identifier
42175, 1981-053SP
Orbit
LEO
Country
Flag of CISCIS
Related business
Manufacturer
Unknown
Mission
Spacecraft
Bus & Motor
Unknown
Mass
Unknown
Launch date (UTC)
1981-06-04 (45 years ago)
Launch vehicle
Unknown
Launch site
Plesetsk Missile And Space Complex (PKMTR)
Object type
Payload
Rocket body
Debris
Shape & HBR
Unknown shape, 0.1 m
Radar Cross Section
Small (<0.1 m²)

Expand to show TLE details & history
Last TLE update: 2 days ago

TLE from 2 days ago
0 COSMOS 1275 DEB
1 42175U 81053SP  26144.44203558  .00000122  00000-0  16242-3 0  9997
2 42175  83.0313 201.6238 0137563 287.3840  86.6431 13.49738229616108
Epoch: 2026-05-24T10:36Z
TLE epoch observation values (Epoch: 2026-05-24T10:36:31.874Z)
Latitude
15.46192°
Longitude
162.37444°
Altitude
1,070.81 km
Speed
7.32 km/s
True Right ascension
13h 34m 12s
True Declination
15° 22' 39"
Sunlit
Object was in full shadow at epoch
Visualization orbit readout
Latitude
Unknown
Longitude
Unknown
Altitude
Unknown
Speed
Unknown
Apparent Right ascension
Unknown
Apparent Declination
Unknown
Sunlit
N/A
Visualization observer readout
Local Sidereal Time
09:14:50
Azimuth
Unknown
Elevation
Unknown
Doppler factor
Unknown
Orbital elements
Apogee altitude
1,172.866 km
Perigee altitude
967.937 km
Semi-major axis
7,448.539 km
Eccentricity
0.01376
Inclination
83.0313°
RAAN
201.6238°
Arg. of periapsis
287.384°
True anomaly
88.21814°
Mean anomaly
86.6431°
Eccentric anomaly
87.43049°
Mean motion
3.37627 °/min
Orbital period
106.63 mins
BSTAR
0.00016242
Loading maneuver chart data...
Computing Atmospheric mass density...
Loading historical data...
Loading historical data...
Loading historical data...
Loading historical data...
Loading historical data...
Loading historical data...
Loading historical data...

Documentation

Showing up to 5 results
|